Weather History for West Palm Beach, FL

Change the Weather History Date:

Friday, December 13, 2013

  Actual Average Record
Temperature  
Mean Temperature 75 °F 68 °F  
Max Temperature 79 °F 77 °F 87 °F (1941)
Min Temperature 71 °F 61 °F 30 °F (1962)
Degree Days  
Heating Degree Days 0 2  
Month to date heating degree days 0 16  
Since 1 July heating degree days 4 28  
Cooling Degree Days 10 5  
Month to date cooling degree days 122 74  
Year to date cooling degree days 4323 3940  
Growing Degree Days 24 (Base 50)    
Moisture  
Dew Point 59 °F    
Average Humidity 61    
Maximum Humidity 69    
Minimum Humidity 53    
Precipitation  
Precipitation 0.00 in 0.11 in 2.17 in (1935)
Month to date precipitation 4.11 1.38  
Year to date precipitation 64.75 60.33  
Snow  
Snow 0.00 in - - ()
Month to date snowfall 0.0  
Since 1 July snowfall 0.0  
Snow Depth 0.00 in    
Sea Level Pressure  
Sea Level Pressure 30.15 in    
Wind  
Wind Speed 14 mph (ENE)    
Max Wind Speed 22 mph    
Max Gust Speed 26 mph    
Visibility 10 miles    
Events      
T = Trace of Precipitation, MM = Missing Value Source: NWS Daily Summary

Daily Weather History Graph

Daily Weather History Graph

Search for Another Location

Airport:

Trip Planner

Search our weather history database for the weather conditions in past years. The results will help you decide how hot, cold, wet, or windy it might be!

Date:

Astronomy

Dec. 13, 2013 Rise Set
Actual Time 7:00 AM EST 5:29 PM EST
Civil Twilight 6:34 AM EST 5:54 PM EST
Nautical Twilight 6:05 AM EST 6:23 PM EST
Astronomical Twilight 5:37 AM EST 6:51 PM EST
Moon 2:59 PM EST (12/13) 3:35 AM EST (12/13)
Length of Visible Light 11h 19m
Length of Day
10h 29m
Waxing Gibbous, 88% of the Moon is Illuminated
Dec 13
Waxing Gibbous
Dec 17
Full
Dec 25
Last Quarter
Jan 1
New
Jan 7
First Quarter

Hourly Weather History & Observations

Time (EST) Temp. Dew Point Humidity Pressure Visibility Wind Dir Wind Speed Gust Speed Precip Events Conditions
12:53 AM 72.0 °F 54.0 °F 53% 30.19 in 10.0 mi NE 18.4 mph 23.0 mph N/A   Mostly Cloudy
1:53 AM 71.1 °F 53.1 °F 53% 30.17 in 10.0 mi ENE 10.4 mph - N/A   Scattered Clouds
2:53 AM 71.1 °F 54.0 °F 55% 30.15 in 10.0 mi ENE 11.5 mph 19.6 mph N/A   Partly Cloudy
3:53 AM 72.0 °F 54.0 °F 53% 30.15 in 10.0 mi ENE 12.7 mph - N/A   Scattered Clouds
4:53 AM 71.1 °F 55.0 °F 57% 30.15 in 10.0 mi ENE 11.5 mph - N/A   Partly Cloudy
5:53 AM 72.0 °F 55.0 °F 55% 30.15 in 10.0 mi ENE 15.0 mph - N/A   Partly Cloudy
6:53 AM 71.1 °F 55.9 °F 59% 30.16 in 10.0 mi ENE 11.5 mph - N/A   Mostly Cloudy
7:53 AM 73.0 °F 55.9 °F 55% 30.18 in 10.0 mi East 10.4 mph - N/A   Mostly Cloudy
8:53 AM 73.9 °F 57.9 °F 57% 30.19 in 10.0 mi East 16.1 mph - N/A   Mostly Cloudy
9:53 AM 75.9 °F 59.0 °F 56% 30.21 in 10.0 mi East 16.1 mph - N/A   Mostly Cloudy
10:53 AM 77.0 °F 59.0 °F 54% 30.21 in 10.0 mi East 11.5 mph 20.7 mph N/A   Mostly Cloudy
11:53 AM 78.1 °F 60.1 °F 54% 30.19 in 10.0 mi East 12.7 mph - N/A   Mostly Cloudy
12:53 PM 78.1 °F 60.1 °F 54% 30.16 in 10.0 mi East 12.7 mph 19.6 mph N/A   Mostly Cloudy
1:53 PM 77.0 °F 61.0 °F 58% 30.14 in 10.0 mi East 17.3 mph - N/A   Mostly Cloudy
2:53 PM 77.0 °F 61.0 °F 58% 30.12 in 10.0 mi ENE 13.8 mph - N/A   Mostly Cloudy
3:53 PM 75.9 °F 61.0 °F 60% 30.13 in 10.0 mi ENE 12.7 mph - N/A   Mostly Cloudy
4:53 PM 75.0 °F 62.1 °F 64% 30.12 in 10.0 mi East 16.1 mph - N/A   Mostly Cloudy
5:53 PM 75.0 °F 61.0 °F 62% 30.13 in 10.0 mi ENE 13.8 mph - N/A   Mostly Cloudy
6:53 PM 73.9 °F 62.1 °F 66% 30.13 in 10.0 mi ENE 18.4 mph 23.0 mph N/A   Mostly Cloudy
7:53 PM 75.0 °F 62.1 °F 64% 30.12 in 10.0 mi East 16.1 mph 25.3 mph N/A   Mostly Cloudy
8:53 PM 75.0 °F 62.1 °F 64% 30.14 in 10.0 mi East 15.0 mph 25.3 mph N/A   Mostly Cloudy
9:53 PM 75.0 °F 63.0 °F 66% 30.14 in 10.0 mi East 16.1 mph - N/A   Mostly Cloudy
10:53 PM 75.0 °F 64.0 °F 69% 30.14 in 10.0 mi East 17.3 mph 21.9 mph N/A   Mostly Cloudy
11:53 PM 75.0 °F 64.0 °F 69% 30.11 in 10.0 mi East 17.3 mph - N/A   Mostly Cloudy